STARLINK-1467 (45733 NORAD) Tracking and Keplerian Element Data

This shows tracking and keplerian element data for the satellite.

Feedback or suggestion? Click here.




ElementValue
Catalog45733
NameSTARLINK-1467
Epoch Orbit176
Epoch Day218.91667824
Epoch Year2020
RAAN41.5234
Inclination53.0014
Eccentricity0.0001451
Argument of Perigee72.4338
Mean Anonmoly341.2958
Mean Motion15.01104905
Decay Rate-0.00900367
L11 45733U 20038D 20218.91667824 -.00900367 00000-0 -75234-1 0 9990
L22 45733 53.0014 41.5234 0001451 72.4338 341.2958 15.01104905 1766

Live tracking and technical data element details for STARLINK-1467 (NORAD 45733). STARLINK-1467 can be tracked NOW for your location showing map with azimuth and elevation plus other details from your city location.

Track the satellite on the map from your city or location and see movement details for azimuth, elevation, latitude, longitude, range, height, and movement on the map or in text.







IsCatalogInMostPopularTable: catalog: 45733, numindb: 8
Update: records affected: 1



GetName: 45733 STARLINK-1467

Hit Count: updated at: Sat, 08 Aug 2020 01:01:14 GMT